Hourly Data Report for September 26, 2017

All times are specified in Local Standard Time (LST). Add 1 hour to adjust for Daylight Saving Time where and when it is observed.

DOAKTOWN AUTO RCS
NEW BRUNSWICK

46°35'06.090" N
66°00'35.071" W
43.00 m
8101201
71038
ADN

Download Data

Hourly Data (September 2017)
Hourly Data Report for September 26, 2017
Temp Definition
°C
Dew Point Temp Definition
°C
Rel Hum Definition
%
Wind Dir Definition
10's deg

Wind Spd Definition
km/h
Visibility Definition
km
Stn Press Definition
kPa
Hmdx Definition


Wind Chill Definition


Weather Definition


TIME
00:00 21.6 18.1 81 24 9   100.74 28   LegendNANA
01:00 21.0 18.1 84 25 8   100.74 27   LegendNANA
02:00 21.3 18.6 85 25 10   100.70 28   LegendNANA
03:00 20.9 18.5 86 25 9   100.66 27   LegendNANA
04:00 21.0 18.6 86 25 11   100.67 27   LegendNANA
05:00 20.6 18.7 89 26 10   100.67 27   LegendNANA
06:00 20.5 18.7 90 26 7   100.70 27   LegendNANA
07:00 20.7 18.9 90 25 6   100.73 27   LegendNANA
08:00 21.4 19.0 86 26 8   100.73 28   LegendNANA
09:00 23.4 19.1 77 25 14   100.72 30   LegendNANA
10:00 26.6 20.0 67 23 11   100.69 34   LegendNANA
11:00 29.6 18.1 50 28 18   100.66 36   LegendNANA
12:00 30.8 17.8 46 27 18   100.64 37   LegendNANA
13:00 31.7 15.3 37 26 18   100.61 36   LegendNANA
14:00 31.2 15.8 40 28 14   100.63 36   LegendNANA
15:00 31.6 15.2 37 28 16   100.65 36   LegendNANA
16:00 31.1 14.8 37 32 10   100.66 35   LegendNANA
17:00 29.7 16.0 44 33 6   100.72 34   LegendNANA
18:00 18.9 12.9 68 8 14   100.95     LegendNANA
19:00 16.4 11.5 73 6 15   101.09     LegendNANA
20:00 14.9 9.3 69 8 16   101.20     LegendNANA
21:00 14.0 9.4 74 5 12   101.23     LegendNANA
22:00 12.7 9.6 81 4 10   101.24     LegendNANA
23:00 13.1 10.0 82 5 10   101.23     LegendNANA

Notes on Data Quality.

Legend

  • E = Estimated
  • M = Missing
  • NA = Not Available
  • ‡ = Partner data that is not subject to review by the National Climate Archives
Date modified: